This is the latest recevied weather packets stored in our database for station/object KC9Q. If no packets are shown the sender has not sent any weather packets the latest 10 day(s).
| Time | Temp. | Humidity | Pressure | Rain* | Wind** | Luminosity | Snow |
|---|---|---|---|---|---|---|---|
| 1778093512 | 14.44° C | 61% | 1014.5 hPa | 0 mm | - | 282 W/m² | - |
| 1778093210 | 14.44° C | 64% | 1014.7 hPa | 0 mm | - | 303 W/m² | - |
| 1778092907 | 15° C | 66% | 1014.4 hPa | 0 mm | - | 369 W/m² | - |
| 1778092604 | 14.44° C | 62% | 1014.2 hPa | 0 mm | - | 463 W/m² | - |
| 1778092300 | 14.44° C | 62% | 1014.5 hPa | 0 mm | - | 438 W/m² | - |
| 1778091997 | 14.44° C | 61% | 1014.6 hPa | 0 mm | - | 419 W/m² | - |
| 1778091694 | 14.44° C | 66% | 1014.8 hPa | 0 mm | - | 480 W/m² | - |
| 1778091392 | 14.44° C | 69% | 1014.6 hPa | 0 mm | - | 860 W/m² | - |
| 1778091089 | 14.44° C | 62% | 1014.7 hPa | 0 mm | - | 764 W/m² | - |
| 1778090786 | 13.89° C | 69% | 1014.8 hPa | 0 mm | - | 562 W/m² | - |
| 1778090482 | 14.44° C | 66% | 1014.6 hPa | 0 mm | - | 606 W/m² | - |
| 1778090179 | 14.44° C | 69% | 1014.9 hPa | 0 mm | - | 420 W/m² | - |
| 1778089874 | 14.44° C | 64% | 1014.8 hPa | 0 mm | - | 741 W/m² | - |
| 1778089574 | 13.89° C | 69% | 1014.7 hPa | 0 mm | - | 637 W/m² | - |
| 1778089270 | 13.89° C | 68% | 1015.1 hPa | 0 mm | - | 516 W/m² | - |
| 1778088968 | 13.33° C | 68% | 1015 hPa | 0 mm | - | 621 W/m² | - |
| 1778088664 | 13.33° C | 68% | 1015.1 hPa | 0 mm | - | 461 W/m² | - |
| 1778088362 | 13.33° C | 74% | 1015.1 hPa | 0 mm | - | 698 W/m² | - |
| 1778088057 | 13.33° C | 70% | 1015.5 hPa | 0 mm | - | 336 W/m² | - |
| 1778087755 | 13.33° C | 72% | 1015.4 hPa | 0 mm | - | 537 W/m² | - |
| 1778087453 | 12.78° C | 75% | 1015.3 hPa | 0 mm | - | 413 W/m² | - |
| 1778087150 | 12.78° C | 72% | 1015.4 hPa | 0 mm | - | 683 W/m² | - |
| 1778086847 | 12.78° C | 73% | 1015 hPa | 0 mm | - | 396 W/m² | - |
| 1778086546 | 12.78° C | 73% | 1015 hPa | 0 mm | - | 387 W/m² | - |
| 1778086242 | 12.78° C | 74% | 1014.9 hPa | 0 mm | - | 339 W/m² | - |
* Rain latest hour (hover to see other rain measurements)
** Current wind speed in m/s (hover to see current wind gust speed)